Registrering Status Plassering
LN-FAW Operativ Ski - ENSI 

Søk
Kontakt informasjon

Follo flyklubb.
Postboks 226, N-1401 Ski
Epost: post@follo-flyklubb.no

Tel: 47 25 54 90
Du er her: Hovedside

Velkommen til Follo flyklubb

 

Follo flyklubb er en flyklubb med primærbase på Ski flyplass, og sekundærbase (vinterbase) på Rakkestad flyplass. Disse websidene er ment som en informasjonskanal til flyklubbens medlemmer, og andre som måtte være interessert i Follo flyklubbs virksomhet. Har du kommentarer eller bidrag du ønsker å dele med flyklubben, send oss en melding her.

Har noen av flyklubbens medlemmer forslag til turer, aktiviteter eller kurs- og infokvelder dere ønsker at vi deltar på eller avholder, så gi beskjed til styret via epost.

 

Før flyturen: Ta en sjekk på datoer i sertifikatene dine. Husk at det er forskjell på gyldighetsdato for PPL-sertifikatet og klasserettighet, som f.eks. SEP. Her er noen nyttige spørsmål, og litt om rettigheter her.

ENGM 250420Z VRB01KT CAVOK M02/M04 Q1026 NOSIG
ENTO 250420Z AUTO 25004KT 9999 NCD 03/M03 Q1029
ENRY 250420Z AUTO 25006KT 9999NDV NCD 05/M02 Q1029
ENSN 090850Z 20010G22KT 150V240 CAVOK 07/03 Q1000
ENCN 250420Z VRB02KT CAVOK 02/01 Q1031
ENZV 250420Z 16005KT 9999 FEW028 05/04 Q1031 RERA TEMPO SHRA
ENFL 250420Z 21017KT 9000 -RA FEW012 SCT020 BKN040 10/08 Q1024
ENFG 220850Z 19007KT CAVOK 06/M03 Q1014
ENNO 241650Z 27010KT 270V340 CAVOK 10/M04 Q1023 WIND THR30
 

Leie av LN-FAW

Follo flyklubbs medlemmer har anledning til å leie LN-FAW, booking skjer via MyWebLog. Husk å loggføre turen etter turen.